Terug naar catalogus

SL-24 DEB

ActiefSSO
NORAD 31120·DEBRIS·🇷🇺 Russia

Gelanceerd Apr 17, 2007 vanaf Baikonur Cosmodrome

Loading…

Volgende Passages (komende 24 uur)

TLE

VersSource: Space-Track

Epoch: Sep 14, 2026, 14:29 UTC

1 31120U 07012D   26257.60390582  .00001084  00000-0  13219-3 0  9994
2 31120  97.8119 217.7946 0006290 152.4303 207.7247 14.85339672 45753

Volg SL-24 DEB in realtime met AllMySat

Download on the App Store